Weather History for KHWY - November, 2013

Change the Weather History Date:

Saturday, November 9, 2013

  Actual Average (KHEF) Record (KHEF)
Temperature  
Mean Temperature 40 °F -  
Max Temperature 57 °F 56 °F 75 °F (1999)
Min Temperature 23 °F 32 °F 24 °F (2004)
Degree Days  
Heating Degree Days 25    
Moisture  
Dew Point 31 °F    
Average Humidity 70    
Maximum Humidity 100    
Minimum Humidity 42    
Precipitation  
Precipitation 0.00 in - - ()
Sea Level Pressure  
Sea Level Pressure 30.23 in    
Wind  
Wind Speed 3 mph (SSW)    
Max Wind Speed 13 mph    
Max Gust Speed 21 mph    
Visibility 10 miles    
Events      
Averages and records for this station are not official NWS values.
T = Trace of Precipitation, MM = Missing Value Source: NWS Daily Summary

Daily Weather History Graph

Daily Weather History Graph

Search for Another Location

Airport or City:

Trip Planner

Search our weather history database for the weather conditions in past years. The results will help you decide how hot, cold, wet, or windy it might be!

Date:

Astronomy

Nov. 09, 2013 Rise Set
Actual Time 6:46 AM EST 5:02 PM EST
Civil Twilight 6:18 AM EST 5:30 PM EST
Nautical Twilight 5:46 AM EST 6:02 PM EST
Astronomical Twilight 5:15 AM EST 6:33 PM EST
Moon 12:22 PM EST (11/9) 11:29 PM EST (11/9)
Length of Visible Light 11h 11m
Length of Day
10h 15m
Waxing Crescent, 44% of the Moon is Illuminated
Nov 9
Waxing Crescent
Nov 10
First Quarter
Nov 17
Full
Nov 25
Last Quarter
Dec 2
New

Hourly Weather History & Observations

Time (EST) Temp. Windchill Dew Point Humidity Pressure Visibility Wind Dir Wind Speed Gust Speed Precip Events Conditions
12:15 AM 25.9 °F - 25.9 °F 100% 30.32 in 10.0 mi Calm Calm - N/A   Clear
12:35 AM 26.1 °F - 26.1 °F 100% 30.32 in 10.0 mi Calm Calm - N/A   Clear
12:55 AM 26.2 °F 20.7 °F 26.2 °F 100% 30.32 in 10.0 mi SSE 4.6 mph - N/A   Clear
1:15 AM 26.1 °F - 26.1 °F 100% 30.32 in 10.0 mi Calm Calm - N/A   Clear
1:35 AM 25.0 °F - 25.0 °F 100% 30.33 in 10.0 mi Calm Calm - N/A   Clear
1:55 AM 25.3 °F - 25.3 °F 100% 30.33 in 10.0 mi Calm Calm - N/A   Clear
2:15 AM 25.5 °F - 25.5 °F 100% 30.33 in 10.0 mi Calm Calm - N/A   Clear
2:35 AM 25.9 °F - 25.9 °F 100% 30.32 in 10.0 mi Calm Calm - N/A   Clear
2:55 AM 25.3 °F - 25.3 °F 100% 30.33 in 10.0 mi Calm Calm - N/A   Clear
3:15 AM 24.6 °F - 24.6 °F 100% 30.32 in 10.0 mi Calm Calm - N/A   Clear
3:35 AM 24.8 °F - 24.8 °F 100% 30.33 in 10.0 mi Calm Calm - N/A   Clear
3:55 AM 25.3 °F - 25.3 °F 100% 30.33 in 10.0 mi Calm Calm - N/A   Clear
4:15 AM 24.3 °F - 24.3 °F 100% 30.33 in 10.0 mi Calm Calm - N/A   Clear
4:35 AM 24.6 °F - 24.6 °F 100% 30.33 in 10.0 mi Calm Calm - N/A   Clear
4:55 AM 25.3 °F - 25.3 °F 100% 30.33 in 10.0 mi Calm Calm - N/A   Clear
5:15 AM 24.8 °F - 24.8 °F 100% 30.33 in 10.0 mi Calm Calm - N/A   Clear
5:35 AM 24.6 °F - 24.6 °F 100% 30.32 in 10.0 mi Calm Calm - N/A   Clear
5:55 AM 24.3 °F - 24.3 °F 100% 30.33 in 10.0 mi Calm Calm - N/A   Clear
6:15 AM 24.1 °F - 24.1 °F 100% 30.33 in 10.0 mi Calm Calm - N/A   Clear
6:35 AM 23.5 °F - 23.5 °F 100% 30.34 in 10.0 mi Calm Calm - N/A   Clear
6:55 AM 24.6 °F - 24.6 °F 100% 30.35 in 10.0 mi Calm Calm - N/A   Clear
7:15 AM 26.1 °F - 26.1 °F 100% 30.36 in 10.0 mi Calm Calm - N/A   Clear
7:35 AM 28.2 °F - 28.2 °F 100% 30.35 in 10.0 mi Calm Calm - N/A   Clear
7:55 AM 31.1 °F - 31.1 °F 100% 30.36 in 10.0 mi Calm Calm - N/A   Clear
8:15 AM 32.7 °F - 32.0 °F 97% 30.35 in 10.0 mi Calm Calm - N/A   Clear
8:35 AM 35.2 °F - 32.4 °F 89% 30.35 in 10.0 mi Calm Calm - N/A   Clear
8:55 AM 38.1 °F - 33.1 °F 82% 30.35 in 10.0 mi Calm Calm - N/A   Clear
9:15 AM 41.5 °F 38.6 °F 35.1 °F 78% 30.35 in 10.0 mi WSW 4.6 mph - N/A   Clear
9:35 AM 43.3 °F 39.9 °F 33.8 °F 69% 30.35 in 10.0 mi SSW 5.8 mph - N/A   Clear
9:55 AM 44.8 °F 41.0 °F 34.2 °F 66% 30.34 in 10.0 mi SW 6.9 mph - N/A   Clear
10:15 AM 46.8 °F - 34.5 °F 62% 30.33 in 10.0 mi South 5.8 mph - N/A   Clear
10:35 AM 48.9 °F - 34.2 °F 57% 30.31 in 10.0 mi South 9.2 mph - N/A   Clear
10:55 AM 50.2 °F - 33.3 °F 52% 30.30 in 10.0 mi South 6.9 mph 16.1 mph N/A   Clear
11:15 AM 52.0 °F - 32.9 °F 48% 30.29 in 10.0 mi SW 11.5 mph - N/A   Clear
11:35 AM 52.9 °F - 33.1 °F 47% 30.28 in 10.0 mi SSW 10.4 mph - N/A   Clear
11:55 AM 53.4 °F - 33.8 °F 47% 30.26 in 10.0 mi SW 11.5 mph 17.3 mph N/A   Clear
12:15 PM 53.8 °F - 33.6 °F 46% 30.24 in 10.0 mi SW 10.4 mph 20.7 mph N/A   Clear
12:35 PM 54.7 °F - 33.3 °F 44% 30.23 in 10.0 mi SSW 10.4 mph 17.3 mph N/A   Clear
12:55 PM 55.4 °F - 33.1 °F 43% 30.21 in 10.0 mi South 12.7 mph - N/A   Clear
1:15 PM 55.6 °F - 32.9 °F 42% 30.20 in 10.0 mi SW 11.5 mph 20.7 mph N/A   Clear
1:35 PM 55.9 °F - 33.1 °F 42% 30.18 in 10.0 mi South 9.2 mph 17.3 mph N/A   Clear
1:55 PM 56.5 °F - 33.6 °F 42% 30.17 in 10.0 mi South 9.2 mph 16.1 mph N/A   Clear
2:15 PM 56.7 °F - 33.8 °F 42% 30.16 in 10.0 mi South 11.5 mph - N/A   Clear
2:35 PM 57.4 °F - 34.3 °F 42% 30.16 in 10.0 mi South 10.4 mph 17.3 mph N/A   Clear
2:55 PM 56.8 °F - 34.0 °F 42% 30.15 in 10.0 mi South 9.2 mph 18.4 mph N/A   Clear
3:15 PM 57.2 °F - 34.3 °F 42% 30.14 in 10.0 mi SSW 9.2 mph - N/A   Clear
3:35 PM 56.8 °F - 34.0 °F 42% 30.14 in 10.0 mi South 8.1 mph - N/A   Clear
3:55 PM 56.5 °F - 34.0 °F 43% 30.14 in 10.0 mi SSW 6.9 mph - N/A   Clear
4:15 PM 55.9 °F - 33.4 °F 43% 30.13 in 10.0 mi South 5.8 mph - N/A   Clear
4:35 PM 55.0 °F - 33.3 °F 44% 30.13 in 10.0 mi SSW 9.2 mph - N/A   Clear
4:55 PM 53.6 °F - 33.1 °F 46% 30.12 in 10.0 mi South 6.9 mph - N/A   Clear
5:15 PM 52.3 °F - 32.9 °F 48% 30.12 in 10.0 mi South 5.8 mph - N/A   Clear
5:35 PM 50.4 °F - 33.1 °F 52% 30.13 in 10.0 mi SSW 5.8 mph - N/A   Clear
5:55 PM 49.5 °F - 33.1 °F 53% 30.13 in 10.0 mi South 3.5 mph - N/A   Clear
6:15 PM 48.6 °F - 32.9 °F 55% 30.12 in 10.0 mi South 5.8 mph - N/A   Clear
6:35 PM 48.7 °F - 33.6 °F 56% 30.12 in 10.0 mi South 5.8 mph - N/A   Clear
6:55 PM 49.6 °F - 33.8 °F 54% 30.11 in 10.0 mi South 8.1 mph - N/A   Clear
7:15 PM 50.5 °F - 33.8 °F 53% 30.11 in 10.0 mi SSW 8.1 mph - N/A   Clear
7:35 PM 50.2 °F - 33.4 °F 53% 30.10 in 10.0 mi SSW 10.4 mph 16.1 mph N/A   Clear
7:55 PM 50.7 °F - 33.4 °F 52% 30.09 in 10.0 mi SSW 10.4 mph 18.4 mph N/A   Clear
8:15 PM 50.2 °F - 33.4 °F 53% 30.08 in 10.0 mi SSW 10.4 mph 17.3 mph N/A   Clear
8:35 PM 50.2 °F - 33.3 °F 52% 30.08 in 10.0 mi SSW 9.2 mph - N/A   Clear
8:55 PM 49.8 °F - 33.4 °F 53% 30.07 in 10.0 mi SSW 10.4 mph 17.3 mph N/A   Clear
9:35 PM 49.1 °F - 33.4 °F 55% 30.06 in 10.0 mi SSW 6.9 mph - N/A   Clear
9:55 PM 48.4 °F - 33.3 °F 56% 30.06 in 10.0 mi SSW 9.2 mph - N/A   Clear
10:15 PM 47.8 °F - 33.4 °F 57% 30.06 in 10.0 mi SW 9.2 mph - N/A   Clear
10:35 PM 47.3 °F - 33.8 °F 59% 30.05 in 10.0 mi SSW 8.1 mph - N/A   Clear
10:55 PM 46.9 °F - 33.4 °F 59% 30.05 in 10.0 mi SW 5.8 mph - N/A   Clear
11:15 PM 45.7 °F 42.7 °F 33.4 °F 62% 30.05 in 10.0 mi SSW 5.8 mph - N/A   Clear
11:35 PM 45.3 °F 42.3 °F 33.4 °F 63% 30.05 in 10.0 mi SSW 5.8 mph - N/A   Clear
11:55 PM 44.6 °F 41.4 °F 33.6 °F 65% 30.05 in 10.0 mi SW 5.8 mph - N/A   Clear